This is the latest recevied weather packets stored in our database for station/object KD8NVS-13. If no packets are shown the sender has not sent any weather packets the latest 1 day(s).
| Time | Temp. | Humidity | Pressure | Rain* | Wind** | Luminosity | Snow |
|---|---|---|---|---|---|---|---|
| 1778049621 | 10.56° C | 98% | 996.6 hPa | 3.05 mm | 2.68 m/s, 258° | 0 W/m² | - |
| 1778049319 | 11.11° C | 98% | 996.6 hPa | 2.79 mm | 2.68 m/s, 281° | 0 W/m² | - |
| 1778049016 | 11.11° C | 98% | 996.3 hPa | 2.29 mm | 2.68 m/s, 258° | 0 W/m² | - |
| 1778048714 | 11.67° C | 98% | 996.3 hPa | 1.78 mm | 2.24 m/s, 260° | 0 W/m² | - |
| 1778048411 | 11.67° C | 98% | 996.3 hPa | 1.52 mm | 1.34 m/s, 270° | 0 W/m² | - |
| 1778048106 | 11.67° C | 98% | 996.3 hPa | 1.02 mm | 0.89 m/s, 264° | 0 W/m² | - |
| 1778047804 | 11.67° C | 98% | 996.3 hPa | 0.76 mm | 0.89 m/s, 267° | 0 W/m² | - |
| 1778047503 | 11.67° C | 98% | 996.3 hPa | 0 mm | 1.34 m/s, 276° | 0 W/m² | - |
| 1778047199 | 12.22° C | 98% | 996.3 hPa | 2.29 mm | 0.89 m/s, 264° | 0 W/m² | - |
| 1778046897 | 12.22° C | 98% | 996.3 hPa | 1.78 mm | 1.34 m/s, 264° | 0 W/m² | - |
| 1778046593 | 12.22° C | 98% | 996.6 hPa | 1.52 mm | 0.89 m/s, 266° | 0 W/m² | - |
| 1778046290 | 12.22° C | 98% | 997 hPa | 1.02 mm | 0 m/s | 0 W/m² | - |
| 1778045986 | 12.78° C | 98% | 997 hPa | 0.76 mm | 1.79 m/s, 264° | 0 W/m² | - |
| 1778045684 | 12.78° C | 98% | 997 hPa | 0.25 mm | 1.34 m/s, 265° | 0 W/m² | - |
| 1778045382 | 13.33° C | 98% | 996.6 hPa | 0.25 mm | 0.89 m/s, 276° | 0 W/m² | - |
| 1778045081 | 13.89° C | 98% | 996.6 hPa | 0.25 mm | 1.34 m/s, 258° | 0 W/m² | - |
| 1778044778 | 14.44° C | 98% | 997 hPa | 0 mm | 0 m/s | 0 W/m² | - |
| 1778044475 | 14.44° C | 98% | 997 hPa | 0 mm | 0 m/s | 0 W/m² | - |
| 1778044172 | 14.44° C | 98% | 997 hPa | 0 mm | 0 m/s | 0 W/m² | - |
| 1778043870 | 14.44° C | 98% | 996.6 hPa | 0 mm | 0 m/s | 0 W/m² | - |
| 1778043566 | 14.44° C | 98% | 997 hPa | 0 mm | 0 m/s | 0 W/m² | - |
| 1778043263 | 14.44° C | 98% | 996.6 hPa | 0 mm | 0 m/s | 0 W/m² | - |
| 1778042960 | 14.44° C | 98% | 997 hPa | 0 mm | 0 m/s | 0 W/m² | - |
| 1778042658 | 14.44° C | 98% | 997 hPa | 0 mm | 0 m/s | 0 W/m² | - |
| 1778042355 | 14.44° C | 98% | 997.3 hPa | 0 mm | 0 m/s | 0 W/m² | - |
* Rain latest hour (hover to see other rain measurements)
** Current wind speed in m/s (hover to see current wind gust speed)